Lapse_Rate
1.7 1.4 1.2 1.1 1.0 0.5 0.2 0.0 -0.1 -0.1 -0.4 -0.9 -1.8 -2.2 -2.2 -2.6 -2.2 1.4 5.0 6.6 5.0 2.6 4.6 9.6 9.6 9.4 9.4 8.7 8.8 8.6 6.5 6.5 6.5 6.5 6.5 7.4 6.6 7.9 8.4 7.9 8.0 8.3 8.3 8.9 9.5
1.9 1.8 1.5 1.4 1.4 1.1 0.6 0.2 0.2 0.1 -0.1 -0.5 -1.2 -1.9 -2.0 -2.2 2.7 5.3 5.7 3.3 3.4 2.5 9.0 9.0 8.7 9.0 8.6 8.1 8.2 7.0 6.5 6.5 6.5 6.5 6.5 7.0 7.0 7.4 7.2 7.4 7.5 7.9 8.8 9.3 9.4
1.9 1.7 1.5 1.3 1.3 1.2 1.0 0.8 0.4 0.3 -0.3 -0.2 -0.8 -1.3 -1.6 -0.9 6.2 8.5 3.2 1.9 2.1 3.1 9.8 9.5 9.2 8.7 7.6 8.0 7.6 7.1 6.5 6.5 6.8 7.4 7.4 7.0 7.0 7.8 7.0 6.5 7.5 7.5 8.3 9.0 9.2
2.0 1.7 1.3 1.1 1.1 0.8 0.7 0.5 0.1 -0.2 -0.6 -0.8 -0.6 -0.9 -0.8 4.0 6.5 8.8 2.7 1.8 2.2 7.6 9.7 9.1 8.8 7.9 6.8 6.5 7.7 6.5 7.0 7.0 7.1 7.5 7.3 6.6 7.6 7.0 7.3 7.3 8.4 8.5 8.8 8.9 8.9
1.9 1.6 1.1 0.8 0.6 0.4 0.2 -0.2 -1.2 -1.5 -1.3 -1.0 -1.0 -0.9 3.1 7.9 8.1 8.8 2.3 2.5 5.2 9.6 9.2 8.8 8.2 7.8 6.5 6.8 7.1 6.5 6.5 7.3 7.6 7.6 7.5 7.6 6.9 6.8 7.2 8.1 8.7 8.8 8.8 8.8 9.0
1.8 1.6 1.1 0.4 0.2 0.2 -0.1 -1.0 -1.3 -1.7 -2.1 -1.5 -1.2 -0.9 6.3 6.9 9.7 8.7 7.7 5.7 7.4 9.5 9.2 9.1 8.4 8.5 7.4 7.0 6.7 7.2 7.2 7.1 7.4 7.4 7.5 6.8 6.8 7.3 7.5 8.4 8.4 8.5 8.6 8.9 8.9
1.7 1.4 0.8 0.4 0.3 0.1 -0.8 -1.8 -1.6 -1.7 -1.6 -1.5 -1.2 1.7 7.2 8.1 8.9 8.7 9.4 9.2 9.6 9.5 9.0 9.3 9.1 8.3 7.9 6.4 7.8 7.4 6.5 6.5 6.8 7.2 6.6 7.4 6.5 6.5 7.7 8.2 8.0 8.3 8.5 8.7 8.9
1.6 1.0 0.7 0.7 0.3 -0.3 -1.1 -2.0 -1.8 -0.2 -0.1 -1.2 -0.9 3.9 7.9 9.2 8.0 8.8 9.9 9.6 9.9 9.9 9.6 9.6 9.3 8.6 7.7 7.9 7.1 6.5 6.5 6.5 6.5 6.6 7.0 6.9 6.5 6.5 7.9 7.9 7.7 8.1 8.4 8.5 8.7
1.7 0.8 0.4 0.4 -0.0 -0.6 -1.4 -1.6 -0.4 1.6 0.9 -0.3 3.3 7.6 7.4 5.3 7.7 9.5 9.7 8.9 9.4 9.6 9.5 9.5 9.0 8.0 7.8 6.5 6.5 6.5 6.5 6.5 6.5 6.6 6.5 6.5 6.5 6.5 7.9 7.8 7.6 7.9 8.2 8.4 8.6
1.9 1.3 0.5 0.1 -0.2 -0.5 -1.4 -0.5 1.8 3.7 5.8 6.4 8.7 7.3 8.0 7.9 9.0 9.4 9.8 9.4 8.9 8.8 8.4 8.2 8.0 6.5 6.5 6.5 6.5 6.5 6.5 6.5 6.5 6.5 6.5 6.5 6.5 6.5 7.4 7.6 7.5 7.8 8.1 8.3 8.5
2.1 1.4 0.9 0.3 -0.5 -0.6 1.9 9.5 8.6 8.3 8.9 7.9 7.8 7.7 8.1 9.0 9.4 9.0 9.5 9.1 8.8 8.2 6.5 7.4 6.5 6.5 6.5 6.5 6.5 6.5 6.5 6.5 6.5 6.5 6.5 6.5 6.5 6.5 7.0 7.4 7.3 7.6 7.9 8.1 8.4
2.4 2.0 0.8 0.4 -0.2 0.1 6.7 8.8 8.6 8.8 7.4 8.6 8.3 8.6 8.9 9.0 7.6 8.6 9.6 7.8 7.4 6.5 6.4 6.5 6.5 6.5 6.5 6.5 6.5 6.5 6.5 6.5 6.5 6.5 6.5 6.5 6.5 6.5 6.5 6.8 7.4 7.6 7.9 8.1 8.4
2.9 2.1 1.0 0.2 0.5 6.3 9.4 8.6 10.0 9.8 7.1 7.6 8.4 8.3 8.4 8.9 7.5 7.9 8.9 8.1 6.5 6.5 6.5 6.5 6.5 6.5 6.5 6.5 6.5 6.5 6.5 6.5 6.5 6.5 6.5 6.5 6.5 6.5 6.5 7.1 7.5 7.9 8.1 8.2 8.3
3.1 2.3 1.4 -0.8 5.3 8.9 9.0 10.1 9.8 9.6 6.5 6.5 6.9 7.7 8.5 8.5 6.8 8.8 9.1 8.1 6.7 6.5 6.5 6.5 6.5 6.5 6.5 6.5 6.5 6.5 6.5 6.5 6.5 6.5 6.5 6.5 6.5 6.5 6.5 6.5 6.5 7.4 7.9 8.1 8.4
3.1 2.4 1.3 0.5 7.7 9.1 9.6 9.6 9.1 9.1 6.5 6.5 6.8 9.1 8.4 7.4 7.3 7.7 9.1 8.2 6.5 6.5 6.5 6.5 6.5 6.5 6.5 6.5 6.5 6.5 6.5 6.5 6.5 6.5 6.5 6.5 6.5 6.5 6.5 6.5 6.5 6.6 7.6 8.1 8.4
2.8 2.1 1.2 7.1 9.7 9.9 9.3 8.3 9.1 6.5 6.5 6.5 6.9 6.5 6.5 7.0 6.9 7.7 7.8 8.5 8.0 6.5 6.5 6.5 7.1 6.5 6.5 6.5 6.5 6.5 6.5 6.5 6.5 6.5 6.5 6.5 6.5 6.5 6.5 6.5 6.5 6.8 7.5 7.9 8.3
2.5 2.0 4.2 6.8 9.0 9.0 9.1 9.1 6.5 6.5 6.5 6.5 6.5 6.5 6.5 6.5 6.5 6.5 6.5 6.5 6.5 6.5 6.5 6.5 6.5 6.5 6.6 6.5 6.5 6.5 6.5 6.5 6.5 6.5 6.5 6.5 6.5 6.5 6.5 6.5 6.5 6.5 7.3 7.9 8.3
2.1 1.8 6.7 8.5 9.2 8.4 9.4 6.7 6.5 6.5 6.5 6.5 6.5 6.5 6.5 6.5 6.5 6.5 6.5 6.5 6.5 6.5 6.5 6.5 6.5 6.5 6.5 6.5 6.5 6.5 6.5 6.5 6.5 6.5 6.5 6.5 6.5 6.5 6.5 6.9 7.2 7.5 7.7 7.9 8.3
2.2 9.9 9.9 10.2 9.0 9.3 8.2 6.5 6.5 6.5 6.5 6.5 6.5 6.5 6.5 6.5 6.5 6.5 6.5 6.5 6.5 6.5 6.5 6.5 6.5 6.5 6.5 6.5 6.5 6.5 6.5 6.5 6.5 6.5 6.5 6.5 6.5 6.5 6.5 6.5 6.6 7.1 7.4 7.6 8.0
6.7 9.4 9.3 9.8 9.5 9.4 6.8 6.5 6.5 6.6 6.6 6.5 6.5 6.5 6.5 6.5 6.5 6.5 6.5 6.5 6.5 6.5 6.5 6.5 6.5 6.5 6.5 6.6 6.5 6.5 6.5 6.5 6.5 6.5 6.5 6.5 6.5 6.5 6.5 6.5 6.5 6.5 7.0 7.5 8.0
9.3 8.3 9.5 9.6 10.1 8.2 6.5 6.5 6.5 7.5 7.3 6.5 6.5 6.5 6.5 6.5 6.5 6.5 6.5 6.5 6.5 6.5 6.5 6.5 6.5 6.5 6.5 6.5 6.5 6.5 6.5 6.5 6.5 6.5 6.5 6.5 6.5 6.5 6.5 6.5 6.5 6.5 7.3 7.6 7.8
9.2 6.5 9.8 10.1 7.0 7.1 6.5 6.5 6.0 6.8 7.5 6.6 6.5 6.5 6.5 6.5 6.5 6.5 6.5 6.5 7.0 6.5 6.5 6.5 6.5 6.5 6.5 6.5 6.5 6.5 6.5 6.5 6.5 6.5 6.5 6.5 6.5 6.5 6.5 6.5 6.5 6.8 7.4 7.8 7.9
8.6 8.2 9.8 9.7 6.5 6.5 6.7 6.5 6.9 6.5 6.5 6.5 6.5 6.5 6.5 6.5 6.5 6.5 6.5 6.7 7.1 6.5 6.5 6.5 6.5 6.5 6.5 6.5 6.5 6.5 6.5 6.5 6.5 6.5 6.5 6.5 6.5 6.5 6.5 6.5 6.8 6.8 7.2 7.5 7.7
8.6 6.5 8.0 8.5 8.0 6.6 6.5 6.5 6.5 7.3 6.7 7.1 6.5 6.8 6.5 6.5 6.5 6.5 6.5 6.5 7.1 6.8 6.8 6.8 6.5 6.5 6.5 6.5 6.5 6.5 6.5 6.5 6.5 6.5 6.5 6.5 6.5 6.5 6.5 6.5 6.5 7.0 7.3 7.5 7.7
8.4 7.0 7.8 6.5 6.8 6.6 6.6 6.5 6.5 6.5 7.0 7.2 6.5 6.5 6.5 6.5 6.5 6.5 6.5 6.5 6.6 6.8 6.6 6.5 6.5 6.5 6.5 6.5 6.5 6.5 6.5 6.5 6.5 6.5 6.5 6.5 6.5 6.5 6.5 6.5 6.6 7.2 7.4 7.4 7.5
8.0 7.3 7.7 7.6 7.4 6.6 6.5 6.5 6.5 6.5 6.5 6.5 6.5 6.5 6.5 6.5 6.5 6.5 6.5 6.5 6.5 6.5 6.5 6.5 6.5 6.5 6.5 6.5 6.5 6.5 6.5 6.5 6.5 6.5 6.5 6.5 6.5 6.5 6.7 7.0 6.9 7.1 7.3 7.3 7.5
9.1 9.0 7.8 7.1 6.7 6.5 6.5 6.5 6.5 6.6 6.9 7.1 6.6 6.5 6.5 6.5 7.2 7.5 7.7 7.4 6.7 6.5 6.5 6.5 6.5 6.5 6.5 6.5 6.5 6.5 6.5 6.5 6.5 6.5 6.5 6.5 6.5 6.5 6.5 6.5 6.8 7.2 7.4 7.4 7.6
Wind_Speed
25 25 25 25 24 24 24 23 23 21 20 20 20 18 18 16 19 8 15 9 11 18 14 19 18 16 16 12 8 6 6 3 5 2 7 11 9 6 6 13 8 5 11 22 26
26 26 27 27 26 26 26 25 24 24 22 20 19 19 17 17 12 18 12 14 15 23 20 22 21 19 15 12 7 8 8 5 4 5 5 9 7 10 8 14 12 9 16 25 26
26 27 28 28 29 28 28 27 27 26 24 20 17 17 16 17 9 7 6 22 21 29 20 18 18 18 15 10 11 9 9 5 4 7 5 10 9 10 8 12 14 14 22 27 26
27 28 29 30 31 31 29 29 29 27 23 20 15 13 14 6 5 6 2 22 25 27 19 19 21 21 16 12 14 8 11 5 3 3 4 5 9 10 10 6 14 16 23 26 26
28 28 29 31 32 32 32 30 30 28 25 18 13 8 7 9 11 5 12 20 22 24 23 23 22 21 18 16 12 17 9 5 10 8 7 4 7 4 10 9 17 19 24 25 23
28 28 28 30 32 33 33 32 31 31 25 18 10 7 6 15 5 6 8 20 24 25 25 23 23 20 13 11 16 9 15 13 11 11 9 10 9 10 11 14 18 22 25 25 25
29 29 30 31 35 35 35 33 33 28 23 12 14 10 9 18 1 5 13 20 24 26 26 24 16 19 8 12 10 15 11 11 14 14 10 9 14 15 8 19 19 22 22 23 24
31 32 32 33 35 36 36 33 27 23 3 10 17 10 9 4 14 7 14 15 19 21 22 20 9 21 9 2 7 16 16 14 17 18 14 13 10 15 14 20 20 21 21 22 24
30 32 33 35 37 38 37 27 13 10 10 20 10 8 7 6 10 16 15 14 19 18 16 13 13 18 19 13 14 14 14 18 12 11 10 15 12 8 17 19 20 20 21 22 22
32 33 35 36 37 39 34 16 5 9 7 3 2 6 7 5 8 21 15 12 21 18 16 16 14 17 17 17 18 18 19 15 15 12 13 13 14 4 12 17 18 19 20 20 23
34 36 35 37 37 37 17 5 4 7 8 10 1 7 1 1 9 15 22 21 18 22 20 23 20 26 27 23 18 14 18 18 17 13 11 15 14 8 12 17 18 19 20 22 23
33 35 38 39 39 29 12 5 8 5 15 18 24 24 18 2 9 16 26 19 24 24 24 18 28 24 23 21 20 20 17 20 16 10 8 12 12 9 12 16 17 20 21 22 21
32 35 38 38 33 10 9 9 8 11 8 12 15 16 14 21 11 22 31 26 27 29 31 24 16 23 24 22 23 24 24 20 16 9 12 14 15 15 12 13 15 18 19 20 22
31 33 34 39 10 11 4 17 13 7 6 7 7 6 14 15 13 19 29 28 19 29 29 27 18 24 24 25 24 25 23 19 17 15 15 16 14 18 19 17 16 18 20 20 23
32 34 33 14 8 7 15 18 12 4 6 8 6 8 8 19 8 24 27 28 22 22 28 22 26 23 28 28 25 22 18 16 21 17 17 20 11 17 14 16 18 19 20 22 23
33 33 31 1 5 11 21 15 4 6 9 3 5 7 8 17 9 13 22 29 23 23 25 27 14 24 23 19 22 17 16 15 16 16 19 23 20 18 18 18 18 18 18 21 23
35 35 15 7 10 21 16 6 7 9 5 5 6 3 8 11 19 14 27 31 23 24 29 26 28 19 17 23 19 23 18 10 14 17 20 20 20 19 9 20 20 17 18 20 23
35 34 1 5 18 16 9 8 13 3 10 20 13 18 15 11 13 23 21 26 32 26 17 21 21 29 24 27 20 28 24 12 18 15 17 18 18 21 24 21 10 17 18 18 21
34 6 5 11 18 8 7 8 8 13 15 15 20 10 10 6 6 12 23 23 32 29 25 22 26 30 21 22 25 24 25 26 11 6 9 16 20 16 10 18 22 23 17 18 21
9 5 5 21 15 9 7 6 8 11 17 17 16 6 8 5 8 7 16 4 16 33 14 17 17 19 25 26 25 20 24 21 15 17 17 14 19 13 22 22 19 21 21 18 21
6 5 9 23 9 6 5 8 14 16 13 10 16 14 12 12 10 6 2 8 8 6 3 15 15 23 23 26 27 22 18 23 18 16 14 12 14 16 19 17 21 21 20 19 19
6 6 9 12 3 4 7 10 11 15 15 15 11 15 15 12 10 4 4 9 9 6 14 16 10 12 26 23 25 29 24 28 13 23 19 13 8 5 9 17 18 18 19 18 17
8 4 4 10 5 6 9 8 10 11 13 11 10 10 16 14 5 3 2 5 11 10 1 5 14 15 15 20 21 30 29 25 26 15 21 17 5 10 9 3 3 8 7 7 10
5 5 4 3 0 9 10 8 10 9 8 15 7 17 16 16 11 5 3 4 9 9 8 6 11 22 19 18 19 26 29 28 27 20 18 18 15 12 4 11 5 5 4 4 8
2 4 4 7 10 14 11 9 10 9 10 11 4 10 8 7 11 12 7 11 3 8 7 6 14 7 16 4 6 14 28 30 30 27 25 20 21 17 8 8 7 7 10 10 6
5 4 2 10 9 12 10 8 9 9 11 10 6 15 14 4 11 8 9 6 5 9 8 6 4 5 14 10 8 11 13 15 23 30 27 26 23 11 6 7 16 14 14 14 16
1 4 3 6 7 9 6 10 14 15 8 6 10 16 12 10 11 14 14 14 14 11 8 6 5 6 15 11 10 15 21 21 19 19 18 23 16 16 18 14 15 15 15 14 14
Wind_Direction
353 350 347 344 341 338 335 333 330 328 326 326 325 325 324 324 302 220 238 244 190 170 169 165 174 179 180 197 231 234 257 168 112 187 95 142 135 113 103 137 160 149 143 145 152
350 347 344 341 338 335 333 329 326 323 321 319 320 320 322 321 286 257 234 178 173 172 178 176 178 177 190 203 203 230 264 89 68 50 348 158 157 139 150 155 145 127 116 147 158
349 346 343 339 335 333 330 325 321 318 315 313 312 314 317 311 276 242 65 172 178 179 190 188 181 184 203 204 205 205 260 119 124 22 9 153 158 153 142 172 166 149 147 157 166
347 343 339 336 332 329 325 321 317 313 308 304 301 304 309 279 262 93 7 168 178 187 186 190 184 194 203 200 207 246 232 239 141 27 51 163 150 176 174 117 157 152 160 164 174
345 341 338 333 328 325 322 319 315 308 301 293 282 279 270 231 246 137 122 155 174 190 184 187 190 196 206 197 197 224 242 242 236 249 257 252 213 198 183 138 151 153 166 173 178
345 341 337 332 325 324 323 319 314 307 297 276 245 212 228 248 291 241 178 165 173 186 187 190 194 202 223 212 211 202 235 250 255 257 242 237 218 211 187 155 153 162 173 179 182
344 341 337 332 326 326 324 319 315 305 297 244 200 210 233 242 331 213 181 187 180 188 187 192 198 196 208 211 222 232 243 233 234 237 237 231 243 220 195 166 169 172 176 182 187
342 340 335 332 328 327 327 321 311 309 295 170 175 197 250 194 249 227 187 191 186 202 200 194 207 205 221 170 202 221 230 235 224 220 218 215 248 181 182 177 181 178 178 181 189
342 339 333 332 329 328 327 327 312 52 105 137 160 223 249 112 205 204 184 185 182 194 209 181 196 220 212 231 218 207 226 212 172 200 178 210 239 79 174 189 185 184 181 183 187
342 338 333 333 330 328 323 310 185 152 150 234 95 216 232 220 172 186 188 178 174 162 175 188 205 210 216 210 216 211 220 238 218 183 214 214 238 220 177 194 190 187 186 189 190
342 337 335 333 331 328 321 238 254 192 234 256 240 272 202 76 145 193 184 167 168 179 185 188 199 208 206 216 227 241 226 227 223 223 254 251 251 251 184 196 194 190 194 196 199
341 337 334 334 331 323 299 55 57 325 297 265 249 252 250 308 210 181 175 174 176 185 193 184 215 211 216 213 223 228 228 229 239 212 254 257 248 239 189 203 199 196 199 203 198
339 336 333 333 324 323 42 52 339 323 264 280 227 233 220 212 226 179 189 194 188 189 196 201 212 213 207 211 214 224 224 227 236 191 228 259 255 244 209 204 206 205 209 200 202
336 335 333 330 302 337 27 346 331 311 277 208 207 227 192 196 219 201 202 194 198 201 198 219 197 199 208 215 207 222 217 242 246 239 247 212 258 225 217 202 212 210 202 208 205
336 336 332 336 323 347 328 323 317 227 273 99 139 131 160 200 128 190 189 206 209 205 202 205 212 202 210 212 213 235 228 214 235 241 247 246 246 256 199 219 213 215 207 208 199
333 333 331 184 272 343 326 319 243 227 236 140 132 189 178 212 218 166 184 210 221 219 214 225 207 213 220 212 221 219 233 223 232 233 239 236 238 243 232 218 222 210 209 205 207
333 328 324 311 330 326 318 285 234 244 69 59 1 337 264 197 210 184 192 196 201 206 215 213 222 217 208 214 208 199 198 194 213 220 234 227 234 233 234 221 214 224 206 206 199
330 318 296 302 321 324 304 254 250 342 19 343 319 296 245 204 225 205 191 206 213 209 192 207 217 203 199 208 196 197 205 212 211 214 224 214 234 234 229 239 251 226 241 196 198
321 342 307 345 329 310 288 254 289 15 343 324 311 279 199 206 287 214 217 214 207 213 225 199 225 186 201 199 202 193 214 217 250 218 264 220 216 247 247 226 220 229 225 209 194
328 322 3 343 329 284 272 343 345 340 329 317 298 356 318 345 273 219 190 32 239 209 241 256 221 184 195 198 213 206 202 215 229 237 231 226 232 224 211 213 220 215 215 205 198
301 307 20 340 285 302 1 342 324 327 331 312 319 310 303 302 307 274 68 46 354 215 215 243 235 188 185 202 195 200 202 214 222 229 217 233 234 212 229 210 213 208 211 208 203
319 327 13 327 320 348 1 334 322 318 336 305 287 283 293 306 290 273 128 25 350 281 217 220 233 218 204 199 214 202 204 201 215 213 239 279 249 119 212 215 215 217 211 217 209
338 311 12 331 3 8 338 313 322 338 348 339 305 339 297 287 276 316 16 41 4 15 319 167 222 210 200 203 204 216 205 211 217 234 212 220 196 129 100 214 159 217 235 250 258
323 326 0 316 58 335 346 340 331 346 326 336 7 317 311 255 249 287 334 25 349 10 321 255 243 224 217 210 197 215 207 214 211 222 227 210 233 165 203 160 146 144 159 184 197
2 21 3 325 335 330 318 304 317 347 338 312 127 5 338 285 267 256 338 308 279 6 340 323 222 232 249 305 287 233 214 210 216 224 227 227 213 238 214 235 239 277 300 294 264
320 338 262 299 291 311 296 303 320 334 329 321 359 325 326 315 311 323 338 333 325 334 328 335 206 239 243 223 234 236 236 240 232 228 232 241 248 239 204 291 271 279 281 280 285
337 295 275 286 294 309 297 321 312 313 303 267 311 319 319 336 300 296 297 285 280 291 307 290 293 240 227 206 253 243 225 220 225 233 236 236 243 251 259 254 253 264 275 275 273